| time (UTC) | temp C | wind direction | speed KPH | gust KPH | rain 1hr cm | rain 24hr cm | rain mn cm | humidity % | barometer mb |
| 20260505064413 | 15 | 146 | 6.4 | 9.7 | 0.00 | 0.00 | 0.00 | 10 | 1010.5 |
| 20260505063911 | 15 | 163 | 8.0 | 9.7 | 0.00 | 0.00 | 0.00 | 10 | 1010.2 |
| 20260505063407 | 15 | 154 | 12.9 | 14.5 | 0.00 | 0.00 | 0.00 | 10 | 1010.3 |
| 20260505062904 | 15 | 186 | 6.4 | 9.7 | 0.00 | 0.00 | 0.00 | 10 | 1010.1 |
| 20260505062401 | 15 | 191 | 8.0 | 11.3 | 0.00 | 0.00 | 0.00 | 10 | 1010.2 |
| 20260505061858 | 15 | 184 | 11.3 | 14.5 | 0.00 | 0.00 | 0.00 | 10 | 1010.1 |
| 20260505061356 | 15 | 220 | 8.0 | 11.3 | 0.00 | 0.00 | 0.00 | 10 | 1010.5 |
| 20260505060853 | 15 | 197 | 4.8 | 8.0 | 0.00 | 0.00 | 0.00 | 10 | 1010.5 |
| 20260505060350 | 15 | 162 | 4.8 | 9.7 | 0.00 | 0.00 | 0.00 | 10 | 1010.3 |
| 20260505055846 | 16 | 202 | 12.9 | 16.1 | 0.00 | 0.00 | 0.00 | 10 | 1009.8 |
| 20260505055342 | 15 | 183 | 9.7 | 11.3 | 0.00 | 0.00 | 0.00 | 10 | 1010.1 |
| 20260505054840 | 15 | 228 | 3.2 | 3.2 | 0.00 | 0.00 | 0.00 | 10 | 1009.8 |
| 20260505054337 | 16 | 211 | 3.2 | 4.8 | 0.00 | 0.00 | 0.00 | 10 | 1009.7 |
| 20260505053835 | 16 | 201 | 4.8 | 4.8 | 0.00 | 0.00 | 0.00 | 10 | 1009.4 |
| 20260505053331 | 16 | 202 | 1.6 | 3.2 | 0.00 | 0.00 | 0.00 | 10 | 1009.5 |
| 20260505052828 | 16 | 215 | 8.0 | 11.3 | 0.00 | 0.00 | 0.00 | 10 | 1009.5 |
| 20260505052325 | 16 | 196 | 6.4 | 11.3 | 0.00 | 0.00 | 0.00 | 10 | 1009.4 |
| 20260505051822 | 16 | 198 | 11.3 | 14.5 | 0.00 | 0.00 | 0.00 | 10 | 1009.2 |
| 20260505051320 | 16 | 181 | 4.8 | 11.3 | 0.00 | 0.00 | 0.00 | 10 | 1009.4 |
| 20260505050818 | 16 | 188 | 4.8 | 4.8 | 0.00 | 0.00 | 0.00 | 10 | 1009.2 |
| 20260505050316 | 16 | 163 | 9.7 | 16.1 | 0.00 | 0.00 | 0.00 | 10 | 1008.9 |
| 20260505041746 | 17 | 203 | 9.7 | 11.3 | 0.00 | 0.00 | 0.00 | 10 | 1008.2 |
| 20260505041243 | 17 | 168 | 8.0 | 11.3 | 0.00 | 0.00 | 0.00 | 10 | 1008.3 |
| 20260505040740 | 17 | 143 | 9.7 | 12.9 | 0.00 | 0.00 | 0.00 | 10 | 1008.1 |
| 20260505040238 | 17 | 176 | 4.8 | 4.8 | 0.00 | 0.00 | 0.00 | 10 | 1008.1 |
| 20260505035734 | 17 | 197 | 8.0 | 9.7 | 0.00 | 0.00 | 0.00 | 10 | 1008.0 |
| 20260505035230 | 17 | 181 | 8.0 | 11.3 | 0.00 | 0.00 | 0.00 | 10 | 1008.0 |
| 20260505034727 | 17 | 146 | 6.4 | 9.7 | 0.00 | 0.00 | 0.00 | 10 | 1008.2 |
| 20260505034224 | 17 | 185 | 6.4 | 8.0 | 0.00 | 0.00 | 0.00 | 10 | 1008.4 |
| 20260505033721 | 17 | 194 | 1.6 | 1.6 | 0.00 | 0.00 | 0.00 | 10 | 1008.0 |
| 20260505033219 | 18 | 196 | 3.2 | 3.2 | 0.00 | 0.00 | 0.00 | 10 | 1007.7 |
| 20260505032717 | 18 | 194 | 1.6 | 3.2 | 0.00 | 0.00 | 0.00 | 10 | 1007.8 |
| 20260505032212 | 18 | 170 | 3.2 | 3.2 | 0.00 | 0.00 | 0.00 | 10 | 1007.4 |
| 20260505031710 | 18 | 150 | 3.2 | 3.2 | 0.00 | 0.00 | 0.00 | 10 | 1007.6 |
| 20260505031206 | 18 | 186 | 1.6 | 1.6 | 0.00 | 0.00 | 0.00 | 10 | 1007.5 |
| 20260505030703 | 18 | 182 | 3.2 | 3.2 | 0.00 | 0.00 | 0.00 | 10 | 1007.4 |
| 20260505030159 | 18 | 186 | 3.2 | 3.2 | 0.00 | 0.00 | 0.00 | 10 | 1007.2 |
| 20260505025655 | 18 | 185 | 4.8 | 4.8 | 0.00 | 0.00 | 0.00 | 10 | 1007.0 |
| 20260505025153 | 19 | 187 | 4.8 | 4.8 | 0.00 | 0.00 | 0.00 | 10 | 1007.3 |
| 20260505024651 | 19 | 187 | 4.8 | 4.8 | 0.00 | 0.00 | 0.00 | 10 | 1007.0 |
| 20260505024147 | 19 | 194 | 8.0 | 11.3 | 0.00 | 0.00 | 0.00 | 10 | 1007.2 |
| 20260505023645 | 19 | 173 | 8.0 | 9.7 | 0.00 | 0.00 | 0.00 | 10 | 1007.2 |
| 20260505023143 | 19 | 201 | 4.8 | 11.3 | 0.00 | 0.00 | 0.00 | 10 | 1007.0 |
| 20260505022640 | 20 | 171 | 8.0 | 9.7 | 0.00 | 0.00 | 0.00 | 10 | 1007.3 |
| 20260505022137 | 20 | 184 | 3.2 | 3.2 | 0.00 | 0.00 | 0.00 | 10 | 1007.0 |
| 20260505021633 | 20 | 170 | 8.0 | 11.3 | 0.00 | 0.00 | 0.00 | 10 | 1006.9 |
| 20260505021125 | 20 | 181 | 17.7 | 20.9 | 0.00 | 0.00 | 0.00 | 10 | 1007.2 |
| 20260505020620 | 20 | 184 | 8.0 | 9.7 | 0.00 | 0.00 | 0.00 | 10 | 1006.9 |
| 20260505020116 | 21 | 199 | 4.8 | 4.8 | 0.00 | 0.00 | 0.00 | 10 | 1006.8 |
| 20260505015613 | 21 | 163 | 8.0 | 11.3 | 0.00 | 0.00 | 0.00 | 10 | 1006.7 |
| 20260505015110 | 21 | 195 | 11.3 | 14.5 | 0.00 | 0.00 | 0.00 | 10 | 1007.2 |
| 20260505014607 | 21 | 166 | 6.4 | 8.0 | 0.00 | 0.00 | 0.00 | 10 | 1006.8 |
| 20260505014104 | 21 | 192 | 9.7 | 11.3 | 0.00 | 0.00 | 0.00 | 10 | 1006.7 |
| 20260505013601 | 21 | 188 | 22.5 | 32.2 | 0.00 | 0.00 | 0.00 | 10 | 1006.7 |
| 20260505013058 | 21 | 170 | 16.1 | 17.7 | 0.00 | 0.00 | 0.00 | 10 | 1006.7 |
| 20260505012556 | 21 | 203 | 8.0 | 11.3 | 0.00 | 0.00 | 0.00 | 10 | 1006.7 |
| 20260505012053 | 21 | 160 | 6.4 | 8.0 | 0.00 | 0.00 | 0.00 | 10 | 1006.7 |
| 20260505011549 | 21 | 202 | 6.4 | 9.7 | 0.00 | 0.00 | 0.00 | 10 | 1006.7 |
| 20260505011046 | 22 | 192 | 12.9 | 14.5 | 0.00 | 0.00 | 0.00 | 10 | 1006.8 |
| 20260505010541 | 22 | 226 | 12.9 | 14.5 | 0.00 | 0.00 | 0.00 | 10 | 1006.9 |
| 20260505010038 | 22 | 216 | 9.7 | 12.9 | 0.00 | 0.00 | 0.00 | 10 | 1006.8 |
| 20260505005534 | 22 | 221 | 11.3 | 14.5 | 0.00 | 0.00 | 0.00 | 10 | 1006.9 |
| 20260505005032 | 22 | 175 | 11.3 | 16.1 | 0.00 | 0.00 | 0.00 | 10 | 1007.0 |
| 20260505004529 | 22 | 189 | 12.9 | 17.7 | 0.00 | 0.00 | 0.00 | 10 | 1007.2 |
| 20260505004020 | 22 | 224 | 19.3 | 22.5 | 0.00 | 0.00 | 0.00 | 10 | 1007.2 |
| 20260505003518 | 22 | 204 | 17.7 | 20.9 | 0.00 | 0.00 | 0.00 | 10 | 1007.2 |
| 20260505003015 | 22 | 225 | 19.3 | 22.5 | 0.00 | 0.00 | 0.00 | 10 | 1007.3 |
| 20260505002510 | 22 | 205 | 9.7 | 11.3 | 0.00 | 0.00 | 0.00 | 10 | 1007.4 |
| 20260505002009 | 22 | 218 | 14.5 | 20.9 | 0.00 | 0.00 | 0.00 | 10 | 1007.3 |
| 20260505001506 | 22 | 148 | 17.7 | 22.5 | 0.00 | 0.00 | 0.00 | 10 | 1007.5 |
| 20260505001003 | 22 | 204 | 14.5 | 16.1 | 0.00 | 0.00 | 0.00 | 10 | 1007.2 |
| 20260505000500 | 22 | 215 | 11.3 | 12.9 | 0.00 | 0.00 | 0.00 | 10 | 1007.3 |
| 20260504235957 | 22 | 196 | 11.3 | 11.3 | 0.00 | 0.00 | 0.00 | 10 | 1007.5 |
| 20260504235454 | 22 | 239 | 11.3 | 14.5 | 0.00 | 0.00 | 0.00 | 10 | 1007.3 |
| 20260504234951 | 22 | 250 | 14.5 | 16.1 | 0.00 | 0.00 | 0.00 | 10 | 1007.5 |
| 20260504234448 | 22 | 243 | 12.9 | 14.5 | 0.00 | 0.00 | 0.00 | 10 | 1007.5 |
| 20260504233944 | 22 | 241 | 12.9 | 14.5 | 0.00 | 0.00 | 0.00 | 10 | 1007.5 |
| 20260504233440 | 22 | 228 | 17.7 | 22.5 | 0.00 | 0.00 | 0.00 | 10 | 1007.5 |
| 20260504232937 | 22 | 247 | 20.9 | 22.5 | 0.00 | 0.00 | 0.00 | 10 | 1007.5 |
| 20260504232434 | 22 | 247 | 16.1 | 17.7 | 0.00 | 0.00 | 0.00 | 10 | 1007.6 |
| 20260504231931 | 22 | 230 | 19.3 | 22.5 | 0.00 | 0.00 | 0.00 | 10 | 1007.4 |
| 20260504231428 | 22 | 241 | 20.9 | 24.1 | 0.00 | 0.00 | 0.00 | 10 | 1007.6 |
| 20260504230924 | 22 | 238 | 22.5 | 24.1 | 0.00 | 0.00 | 0.00 | 10 | 1007.5 |
| 20260504230421 | 22 | 251 | 14.5 | 16.1 | 0.00 | 0.00 | 0.00 | 10 | 1007.6 |
| 20260504225920 | 22 | 238 | 17.7 | 20.9 | 0.00 | 0.00 | 0.00 | 10 | 1007.6 |
| 20260504225416 | 22 | 239 | 17.7 | 17.7 | 0.00 | 0.00 | 0.00 | 10 | 1007.5 |
| 20260504224914 | 22 | 243 | 24.1 | 27.4 | 0.00 | 0.00 | 0.00 | 10 | 1007.6 |
| 20260504224410 | 22 | 248 | 22.5 | 29.0 | 0.00 | 0.00 | 0.00 | 10 | 1007.5 |
| 20260504223908 | 22 | 229 | 27.4 | 32.2 | 0.00 | 0.00 | 0.00 | 10 | 1007.5 |
| 20260504223403 | 22 | 225 | 22.5 | 25.7 | 0.00 | 0.00 | 0.00 | 10 | 1007.7 |
| 20260504222859 | 22 | 247 | 25.7 | 29.0 | 0.00 | 0.00 | 0.00 | 10 | 1007.4 |
| 20260504222356 | 21 | 248 | 16.1 | 20.9 | 0.00 | 0.00 | 0.00 | 10 | 1007.5 |
| 20260504221855 | 23 | 229 | 16.1 | 17.7 | 0.00 | 0.00 | 0.00 | 10 | 1007.6 |
| 20260504221350 | 23 | 226 | 8.0 | 9.7 | 0.00 | 0.00 | 0.00 | 10 | 1007.4 |
| 20260504220847 | 23 | 269 | 17.7 | 22.5 | 0.00 | 0.00 | 0.00 | 10 | 1007.8 |
| 20260504220344 | 23 | 212 | 11.3 | 20.9 | 0.00 | 0.00 | 0.00 | 10 | 1007.5 |
| 20260504215841 | 23 | 267 | 14.5 | 17.7 | 0.00 | 0.00 | 0.00 | 10 | 1007.5 |
| 20260504215337 | 23 | 206 | 1.6 | 3.2 | 0.00 | 0.00 | 0.00 | 10 | 1007.7 |
| 20260504214834 | 23 | 224 | 8.0 | 11.3 | 0.00 | 0.00 | 0.00 | 10 | 1008.1 |
| 20260504214331 | 23 | 238 | 8.0 | 9.7 | 0.00 | 0.00 | 0.00 | 10 | 1007.8 |
| 20260504213827 | 23 | 253 | 6.4 | 9.7 | 0.00 | 0.00 | 0.00 | 10 | 1008.0 |
| 20260504213323 | 23 | 252 | 3.2 | 3.2 | 0.00 | 0.00 | 0.00 | 10 | 1008.1 |
| 20260504212821 | 23 | 175 | 9.7 | 11.3 | 0.00 | 0.00 | 0.00 | 10 | 1008.2 |
| 20260504212317 | 23 | 230 | 9.7 | 11.3 | 0.00 | 0.00 | 0.00 | 10 | 1008.3 |
| 20260504211815 | 23 | 264 | 11.3 | 14.5 | 0.00 | 0.00 | 0.00 | 10 | 1008.5 |
| 20260504211310 | 23 | 271 | 12.9 | 14.5 | 0.00 | 0.00 | 0.00 | 10 | 1008.3 |
| 20260504210808 | 23 | 234 | 11.3 | 12.9 | 0.00 | 0.00 | 0.00 | 10 | 1008.4 |
| 20260504210305 | 23 | 274 | 11.3 | 14.5 | 0.00 | 0.00 | 0.00 | 10 | 1008.5 |
| 20260504205802 | 22 | 232 | 11.3 | 14.5 | 0.00 | 0.00 | 0.00 | 10 | 1008.4 |
| 20260504205300 | 23 | 275 | 8.0 | 9.7 | 0.00 | 0.00 | 0.00 | 10 | 1008.6 |
| 20260504204758 | 23 | 253 | 6.4 | 9.7 | 0.00 | 0.00 | 0.00 | 10 | 1008.8 |
| 20260504204256 | 23 | 260 | 6.4 | 8.0 | 0.00 | 0.00 | 0.00 | 10 | 1008.8 |
| 20260504203755 | 23 | 336 | 12.9 | 14.5 | 0.00 | 0.00 | 0.00 | 10 | 1008.6 |
| 20260504203253 | 23 | 252 | 8.0 | 9.7 | 0.00 | 0.00 | 0.00 | 10 | 1008.9 |
| 20260504202752 | 22 | 287 | 8.0 | 11.3 | 0.00 | 0.00 | 0.00 | 10 | 1008.8 |
| 20260504202250 | 22 | 268 | 8.0 | 14.5 | 0.00 | 0.00 | 0.00 | 10 | 1008.6 |
| 20260504201747 | 23 | 216 | 1.6 | 3.2 | 0.00 | 0.00 | 0.00 | 10 | 1008.9 |
| 20260504201244 | 22 | 241 | 4.8 | 4.8 | 0.00 | 0.00 | 0.00 | 10 | 1009.0 |
| 20260504200742 | 22 | 331 | 6.4 | 8.0 | 0.00 | 0.00 | 0.00 | 10 | 1009.1 |
| 20260504200237 | 22 | 266 | 12.9 | 14.5 | 0.00 | 0.00 | 0.00 | 10 | 1009.0 |
| 20260504195734 | 22 | 224 | 8.0 | 11.3 | 0.00 | 0.00 | 0.00 | 10 | 1009.1 |
| 20260504195230 | 22 | 245 | 12.9 | 14.5 | 0.00 | 0.00 | 0.00 | 10 | 1009.1 |
| 20260504194728 | 22 | 280 | 9.7 | 11.3 | 0.00 | 0.00 | 0.00 | 10 | 1009.3 |
| 20260504194223 | 22 | 222 | 8.0 | 11.3 | 0.00 | 0.00 | 0.00 | 10 | 1009.2 |
| 20260504193720 | 22 | 254 | 11.3 | 12.9 | 0.00 | 0.00 | 0.00 | 10 | 1009.3 |
| 20260504193218 | 22 | 246 | 8.0 | 9.7 | 0.00 | 0.00 | 0.00 | 10 | 1009.5 |
| 20260504192716 | 21 | 242 | 12.9 | 14.5 | 0.00 | 0.00 | 0.00 | 10 | 1009.5 |
| 20260504192213 | 22 | 246 | 11.3 | 12.9 | 0.00 | 0.00 | 0.00 | 10 | 1009.7 |
| 20260504191712 | 22 | 238 | 14.5 | 16.1 | 0.00 | 0.00 | 0.00 | 10 | 1009.5 |
| 20260504191208 | 21 | 241 | 6.4 | 8.0 | 0.00 | 0.00 | 0.00 | 10 | 1009.8 |
| 20260504190703 | 22 | 310 | 8.0 | 14.5 | 0.00 | 0.00 | 0.00 | 10 | 1009.7 |
| 20260504190200 | 22 | 273 | 11.3 | 14.5 | 0.00 | 0.00 | 0.00 | 10 | 1009.9 |
| 20260504185657 | 22 | 254 | 11.3 | 14.5 | 0.00 | 0.00 | 0.00 | 10 | 1009.8 |
| 20260504185153 | 22 | 289 | 8.0 | 11.3 | 0.00 | 0.00 | 0.00 | 10 | 1009.9 |
| 20260504184649 | 22 | 248 | 9.7 | 11.3 | 0.00 | 0.00 | 0.00 | 10 | 1009.9 |
| 20260504184144 | 22 | 309 | 3.2 | 4.8 | 0.00 | 0.00 | 0.00 | 10 | 1009.9 |
| 20260504183642 | 22 | 257 | 9.7 | 12.9 | 0.00 | 0.00 | 0.00 | 10 | 1009.8 |
| 20260504183139 | 22 | 260 | 9.7 | 11.3 | 0.00 | 0.00 | 0.00 | 10 | 1010.0 |
| 20260504182637 | 22 | 278 | 8.0 | 11.3 | 0.00 | 0.00 | 0.00 | 10 | 1010.1 |
| 20260504182135 | 22 | 254 | 12.9 | 14.5 | 0.00 | 0.00 | 0.00 | 10 | 1010.2 |
| 20260504181632 | 22 | 302 | 9.7 | 16.1 | 0.00 | 0.00 | 0.00 | 10 | 1009.9 |
| 20260504181129 | 21 | 220 | 4.8 | 4.8 | 0.00 | 0.00 | 0.00 | 10 | 1010.3 |
| 20260504180628 | 22 | 281 | 6.4 | 8.0 | 0.00 | 0.00 | 0.00 | 10 | 1010.3 |
| 20260504180126 | 21 | 212 | 3.2 | 3.2 | 0.00 | 0.00 | 0.00 | 10 | 1010.5 |
| 20260504175623 | 21 | 315 | 6.4 | 8.0 | 0.00 | 0.00 | 0.00 | 10 | 1010.5 |
| 20260504175120 | 22 | 170 | 8.0 | 11.3 | 0.00 | 0.00 | 0.00 | 10 | 1010.5 |
| 20260504174618 | 22 | 126 | 4.8 | 4.8 | 0.00 | 0.00 | 0.00 | 10 | 1010.7 |
| 20260504174114 | 22 | 95 | 4.8 | 8.0 | 0.00 | 0.00 | 0.00 | 10 | 1010.5 |
| 20260504173611 | 21 | 184 | 4.8 | 8.0 | 0.00 | 0.00 | 0.00 | 10 | 1010.5 |
| 20260504173109 | 21 | 226 | 8.0 | 11.3 | 0.00 | 0.00 | 0.00 | 10 | 1010.8 |
| 20260504172605 | 21 | 138 | 8.0 | 9.7 | 0.00 | 0.00 | 0.00 | 10 | 1010.6 |
| 20260504172102 | 21 | 189 | 0.0 | 1.6 | 0.00 | 0.00 | 0.00 | 10 | 1010.8 |
| 20260504171558 | 21 | 159 | 4.8 | 8.0 | 0.00 | 0.00 | 0.00 | 10 | 1010.6 |
| 20260504171055 | 21 | 163 | 3.2 | 4.8 | 0.00 | 0.00 | 0.00 | 10 | 1010.8 |
| 20260504170551 | 21 | 209 | 9.7 | 12.9 | 0.00 | 0.00 | 0.00 | 10 | 1010.8 |
| 20260504150935 | 18 | 137 | 11.3 | 14.5 | 0.00 | 0.00 | 0.00 | 10 | 1010.9 |
| 20260504150432 | 18 | 128 | 6.4 | 11.3 | 0.00 | 0.00 | 0.00 | 10 | 1011.0 |
| 20260504140852 | 17 | 169 | 8.0 | 14.5 | 0.00 | 0.00 | 0.00 | 10 | 1011.3 |
| 20260504140349 | 16 | 132 | 8.0 | 9.7 | 0.00 | 0.00 | 0.00 | 10 | 1011.1 |
| 20260504130812 | 11 | 134 | 3.2 | 3.2 | 0.00 | 0.00 | 0.00 | 10 | 1011.3 |
| 20260504130308 | 11 | 167 | 1.6 | 1.6 | 0.00 | 0.00 | 0.00 | 10 | 1011.3 |
| 20260504120232 | 11 | 105 | 3.2 | 3.2 | 0.00 | 0.00 | 0.00 | 10 | 1011.3 |
| 20260504110659 | 14 | 157 | 4.8 | 4.8 | 0.00 | 0.00 | 0.00 | 10 | 1011.3 |
| 20260504110155 | 14 | 126 | 4.8 | 8.0 | 0.00 | 0.00 | 0.00 | 10 | 1011.5 |
| 20260504100615 | 13 | 174 | 6.4 | 8.0 | 0.00 | 0.00 | 0.00 | 10 | 1011.0 |
| 20260504100114 | 13 | 153 | 6.4 | 8.0 | 0.00 | 0.00 | 0.00 | 10 | 1011.0 |
| 20260504081506 | 11 | 103 | 3.2 | 3.2 | 0.00 | 0.00 | 0.00 | 10 | 1010.0 |
| 20260504081001 | 11 | 131 | 3.2 | 3.2 | 0.00 | 0.00 | 0.00 | 10 | 1010.3 |
| 20260504080459 | 11 | 107 | 3.2 | 3.2 | 0.00 | 0.00 | 0.00 | 10 | 1010.3 |